Location: Delettes
(50.6178°N, 2.2123°E)
Time: 06:18:20
(UTC+00:00)

Cosmos 1862 - Pass Details

Date: 27 February 2020
Orbit: 539 x 556 km, 82.5° (Epoch: 09 April)

Event Time Altitude Azimuth Distance (km) Brightness Sun altitude
Rises 18:01:37 0° 203° (SSW) 2,697 7.3 -6.1°
Reaches altitude 10° 18:03:49 10° 209° (SSW) 1,807 6.5 -6.4°
Maximum altitude 18:07:40 48° 284° (WNW) 721 4.5 -7.0°
Drops below altitude 10° 18:11:32 10° 0° (N) 1,816 5.9 -7.6°
Sets 18:13:46 0° 6° (N) 2,712 6.8 -8.0°
